GW3437 Weather Reports


time (UTC)temp
F
wind
direction
speed
knots
gust
knots
rain 1hr
in
rain 24hr
in
rain mn
in
humidity
%
barometer
mb
20260504081829 68 238 3.5 7.8 0.00 0.00 0.00 45 1010.3
20260504081326 68 161 8.7 12.2 0.00 0.00 0.00 45 1010.4
20260504080822 68 196 2.6 7.0 0.00 0.00 0.00 45 1010.5
20260504080319 68 209 7.0 7.8 0.00 0.00 0.00 45 1010.3
20260504070246 69 189 5.2 11.3 0.00 0.00 0.00 42 1011.1
20260504060207 70 120 3.5 9.6 0.00 0.00 0.00 40 1012.0
20260504050629 71 200 7.0 12.2 0.00 0.00 0.00 40 1012.5
20260504050127 70 165 5.2 9.6 0.00 0.00 0.00 41 1012.7
20260504045624 71 176 3.5 7.8 0.00 0.00 0.00 40 1012.7
20260504045124 71 226 7.8 11.3 0.00 0.00 0.00 40 1012.6
20260504044622 71 172 5.2 7.0 0.00 0.00 0.00 40 1012.6
20260504044118 71 193 5.2 18.2 0.00 0.00 0.00 40 1012.4
20260504043615 71 185 8.7 13.9 0.00 0.00 0.00 40 1012.6
20260504043113 71 269 5.2 12.2 0.00 0.00 0.00 40 1012.6
20260504042610 71 206 6.1 13.9 0.00 0.00 0.00 40 1012.6
20260504042107 71 208 5.2 7.8 0.00 0.00 0.00 40 1012.5
20260504041602 71 162 5.2 8.7 0.00 0.00 0.00 39 1012.5
20260504041059 72 208 2.6 13.0 0.00 0.00 0.00 39 1012.6
20260504040556 72 186 2.6 7.0 0.00 0.00 0.00 39 1012.5
20260504040053 72 177 4.3 5.2 0.00 0.00 0.00 38 1012.9
20260504035549 72 202 5.2 11.3 0.00 0.00 0.00 38 1012.8
20260504035045 72 197 7.8 12.2 0.00 0.00 0.00 38 1012.9
20260504034544 72 211 7.0 9.6 0.00 0.00 0.00 38 1012.9
20260504034035 72 153 4.3 6.1 0.00 0.00 0.00 38 1012.7
20260504033533 72 189 6.1 9.6 0.00 0.00 0.00 38 1013.0
20260504033030 73 203 1.7 13.9 0.00 0.00 0.00 37 1013.1
20260504032527 73 228 6.1 11.3 0.00 0.00 0.00 37 1013.0
20260504032024 73 206 4.3 8.7 0.00 0.00 0.00 37 1012.9
20260504031521 73 181 5.2 12.2 0.00 0.00 0.00 37 1012.8
20260504031017 73 184 5.2 7.8 0.00 0.00 0.00 37 1012.9
20260504030515 73 183 5.2 8.7 0.00 0.00 0.00 37 1013.0
20260504030010 73 219 3.5 7.8 0.00 0.00 0.00 37 1012.8
20260504025508 74 181 3.5 7.8 0.00 0.00 0.00 37 1013.0
20260504025005 74 189 4.3 7.8 0.00 0.00 0.00 36 1012.8
20260504024502 74 208 3.5 13.0 0.00 0.00 0.00 36 1012.9
20260504023959 74 188 7.0 12.2 0.00 0.00 0.00 36 1012.8
20260504023455 75 199 4.3 11.3 0.00 0.00 0.00 35 1012.8
20260504022950 75 218 5.2 8.7 0.00 0.00 0.00 35 1012.7
20260504022447 75 186 7.8 11.3 0.00 0.00 0.00 35 1012.8
20260504021944 75 274 4.3 9.6 0.00 0.00 0.00 35 1012.7
20260504021441 75 184 6.1 7.8 0.00 0.00 0.00 35 1012.7
20260504020938 75 153 2.6 11.3 0.00 0.00 0.00 34 1012.7
20260504020435 75 217 4.3 9.6 0.00 0.00 0.00 34 1012.7
20260504015931 75 210 1.7 7.0 0.00 0.00 0.00 34 1012.6
20260504015427 76 246 4.3 12.2 0.00 0.00 0.00 33 1012.7
20260504014923 76 205 7.0 8.7 0.00 0.00 0.00 33 1012.4
20260504014420 76 209 5.2 8.7 0.00 0.00 0.00 33 1012.5
20260504013916 76 221 5.2 11.3 0.00 0.00 0.00 32 1012.4
20260504013415 77 206 7.0 12.2 0.00 0.00 0.00 32 1012.3
20260504012911 77 191 8.7 11.3 0.00 0.00 0.00 32 1012.4
20260504012409 77 209 5.2 7.0 0.00 0.00 0.00 32 1012.3
20260504011906 77 160 8.7 12.2 0.00 0.00 0.00 31 1012.5
20260504011403 77 127 5.2 12.2 0.00 0.00 0.00 31 1012.3
20260504010858 78 181 2.6 14.8 0.00 0.00 0.00 30 1012.5
20260504010354 78 179 7.8 11.3 0.00 0.00 0.00 29 1012.4
20260504005845 78 160 5.2 12.2 0.00 0.00 0.00 29 1012.4
20260504005342 79 215 7.8 14.8 0.00 0.00 0.00 28 1012.3
20260504004840 79 207 4.3 11.3 0.00 0.00 0.00 28 1012.5
20260504004337 79 163 5.2 12.2 0.00 0.00 0.00 28 1012.3
20260504003833 79 187 7.8 8.7 0.00 0.00 0.00 28 1012.4
20260504003330 80 242 5.2 8.7 0.00 0.00 0.00 28 1012.4
20260504002827 80 121 8.7 11.3 0.00 0.00 0.00 27 1012.6
20260504002324 81 148 5.2 7.8 0.00 0.00 0.00 27 1012.5
20260504001822 81 168 6.1 11.3 0.00 0.00 0.00 27 1012.7
20260504001319 82 195 3.5 13.0 0.00 0.00 0.00 26 1012.6
20260504000815 82 264 6.1 12.2 0.00 0.00 0.00 26 1012.7
20260504000312 82 239 4.3 7.0 0.00 0.00 0.00 26 1012.8
20260503235810 82 203 8.7 12.2 0.00 0.00 0.00 26 1012.6
20260503235308 82 164 7.0 13.0 0.00 0.00 0.00 26 1012.7
20260503234805 82 196 7.0 12.2 0.00 0.00 0.00 25 1012.9
20260503234303 83 303 7.8 13.0 0.00 0.00 0.00 24 1012.8
20260503233800 83 249 8.7 13.9 0.00 0.00 0.00 24 1012.8
20260503233255 83 253 7.0 12.2 0.00 0.00 0.00 24 1012.7
20260503232753 83 280 6.1 9.6 0.00 0.00 0.00 25 1013.1
20260503232250 83 163 6.1 8.7 0.00 0.00 0.00 25 1012.9
20260503231748 83 183 5.2 9.6 0.00 0.00 0.00 26 1013.1
20260503231245 83 229 5.2 7.8 0.00 0.00 0.00 24 1013.1
20260503230740 83 183 9.6 12.2 0.00 0.00 0.00 24 1013.4
20260503230238 84 252 6.1 11.3 0.00 0.00 0.00 25 1013.2
20260503225736 84 176 7.8 11.3 0.00 0.00 0.00 25 1013.1
20260503225235 84 233 11.3 13.9 0.00 0.00 0.00 24 1013.1
20260503224732 84 220 5.2 13.0 0.00 0.00 0.00 24 1013.0
20260503224230 84 251 7.0 11.3 0.00 0.00 0.00 24 1013.1
20260503223728 84 185 6.1 12.2 0.00 0.00 0.00 24 1013.0
20260503223225 84 247 8.7 13.0 0.00 0.00 0.00 23 1013.0
20260503222721 85 201 4.3 13.9 0.00 0.00 0.00 24 1013.2
20260503222219 85 232 5.2 12.2 0.00 0.00 0.00 24 1013.3
20260503221717 84 205 6.1 11.3 0.00 0.00 0.00 24 1013.3
20260503221215 84 193 5.2 11.3 0.00 0.00 0.00 25 1013.3
20260503220711 84 184 7.0 12.2 0.00 0.00 0.00 24 1013.5
20260503220208 85 257 7.8 11.3 0.00 0.00 0.00 24 1013.6
20260503215705 85 179 5.2 11.3 0.00 0.00 0.00 25 1013.7
20260503215202 85 165 6.1 9.6 0.00 0.00 0.00 26 1013.4
20260503214700 84 242 4.3 11.3 0.00 0.00 0.00 26 1013.4
20260503214155 85 213 5.2 12.2 0.00 0.00 0.00 26 1013.7
20260503213649 85 190 4.3 12.2 0.00 0.00 0.00 26 1013.6
20260503213146 84 212 6.1 14.8 0.00 0.00 0.00 25 1013.7
20260503212643 85 227 7.8 13.9 0.00 0.00 0.00 25 1013.8
20260503212140 85 234 6.1 11.3 0.00 0.00 0.00 23 1014.2
20260503211638 85 231 3.5 14.8 0.00 0.00 0.00 23 1014.1
20260503211133 85 260 5.2 13.9 0.00 0.00 0.00 22 1014.3
20260503210630 86 229 7.8 15.6 0.00 0.00 0.00 22 1014.3
20260503210127 85 176 5.2 12.2 0.00 0.00 0.00 23 1014.2
20260503205622 85 162 7.0 13.9 0.00 0.00 0.00 24 1014.4
20260503205119 85 232 4.3 11.3 0.00 0.00 0.00 24 1014.4
20260503204616 85 218 7.0 13.0 0.00 0.00 0.00 23 1014.6
20260503204113 85 220 8.7 11.3 0.00 0.00 0.00 24 1014.7
20260503203610 84 202 2.6 7.0 0.00 0.00 0.00 24 1014.7
20260503203108 85 179 7.0 11.3 0.00 0.00 0.00 24 1014.9
20260503202605 85 221 5.2 9.6 0.00 0.00 0.00 23 1015.0
20260503202103 86 186 4.3 13.9 0.00 0.00 0.00 23 1015.0
20260503201600 85 180 3.5 14.8 0.00 0.00 0.00 24 1015.1
20260503201057 85 115 9.6 13.9 0.00 0.00 0.00 24 1015.0
20260503200554 85 241 4.3 8.7 0.00 0.00 0.00 24 1015.3
20260503200050 86 160 6.1 9.6 0.00 0.00 0.00 24 1015.4
20260503195547 84 198 3.5 11.3 0.00 0.00 0.00 26 1015.4
20260503195044 85 196 8.7 15.6 0.00 0.00 0.00 24 1015.7
20260503194541 85 205 7.0 11.3 0.00 0.00 0.00 23 1015.6
20260503194041 85 188 5.2 13.0 0.00 0.00 0.00 23 1015.9
20260503193538 86 162 10.4 13.0 0.00 0.00 0.00 24 1015.7
20260503193033 86 266 4.3 9.6 0.00 0.00 0.00 22 1015.9
20260503192530 86 205 1.7 7.0 0.00 0.00 0.00 22 1015.9
20260503192026 85 188 8.7 13.9 0.00 0.00 0.00 22 1015.9
20260503191523 85 179 3.5 9.6 0.00 0.00 0.00 22 1016.1
20260503191019 85 218 4.3 12.2 0.00 0.00 0.00 22 1016.4
20260503190516 85 227 9.6 13.9 0.00 0.00 0.00 21 1016.0
20260503190008 85 199 3.5 7.0 0.00 0.00 0.00 21 1016.3
20260503185504 85 93 4.3 12.2 0.00 0.00 0.00 22 1016.3
20260503185004 85 220 2.6 9.6 0.00 0.00 0.00 23 1016.2
20260503184500 86 176 5.2 8.7 0.00 0.00 0.00 21 1016.4
20260503183956 86 278 6.1 9.6 0.00 0.00 0.00 21 1016.5
20260503183453 85 158 5.2 13.0 0.00 0.00 0.00 23 1016.7
20260503182950 85 213 7.0 8.7 0.00 0.00 0.00 24 1016.6
20260503182449 85 214 3.5 7.8 0.00 0.00 0.00 25 1016.4
20260503181946 85 256 7.0 7.8 0.00 0.00 0.00 25 1016.6
20260503181443 84 179 5.2 9.6 0.00 0.00 0.00 28 1016.7
20260503180939 85 310 2.6 8.7 0.00 0.00 0.00 28 1016.7
20260503180438 85 215 5.2 8.7 0.00 0.00 0.00 28 1016.9
20260503175934 83 232 4.3 8.7 0.00 0.00 0.00 28 1016.9
20260503175432 83 241 9.6 12.2 0.00 0.00 0.00 29 1017.1
20260503174928 83 145 6.1 8.7 0.00 0.00 0.00 28 1017.0
20260503174426 82 224 5.2 7.8 0.00 0.00 0.00 30 1017.3
20260503173926 83 177 7.0 11.3 0.00 0.00 0.00 30 1017.2
20260503173423 83 179 5.2 9.6 0.00 0.00 0.00 30 1017.3
20260503172920 83 242 2.6 7.0 0.00 0.00 0.00 30 1017.7
20260503172417 82 191 3.5 8.7 0.00 0.00 0.00 33 1017.8
20260503171913 82 216 4.3 7.8 0.00 0.00 0.00 32 1017.7
20260503171410 81 174 6.1 9.6 0.00 0.00 0.00 32 1017.8
20260503170908 81 183 4.3 6.1 0.00 0.00 0.00 34 1017.8
20260503170403 80 187 2.6 7.8 0.00 0.00 0.00 35 1018.0
20260503150756 71 179 3.5 5.2 0.00 0.00 0.00 44 1018.2
20260503150252 71 168 3.5 5.2 0.00 0.00 0.00 45 1018.2
20260503140217 65 245 6.1 8.7 0.00 0.00 0.00 54 1018.5
20260503131146 59 177 1.7 3.5 0.00 0.00 0.00 68 1018.4
20260503130643 59 170 2.6 6.1 0.00 0.00 0.00 69 1018.4
20260503130141 58 175 1.7 2.6 0.00 0.00 0.00 70 1018.5
20260503120106 53 198 0.9 1.7 0.00 0.00 0.00 78 1018.1
20260503110533 53 115 0.0 1.7 0.00 0.00 0.00 75 1018.1